GFSSGP_925_rhum_273.txt.gz
RH
58 51 56 74 86 65 43 35 31 47 46 30 30 35 38 38 50 85 66 72 83 90 80 86 85 94 95 95 93 94 96 95 96 97 98 95 97 97 94 97 96 75 85 88 83 83 96 92 91
75 75 82 90 73 47 40 29 30 40 37 29 32 35 42 48 40 54 62 72 67 85 69 88 85 91 96 88 92 89 92 96 96 96 95 95 96 96 96 95 95 75 71 90 93 93 89 88 89
68 72 82 84 43 43 38 28 27 26 34 33 33 30 35 42 34 45 60 58 69 73 62 88 83 91 96 90 96 95 96 94 94 91 94 97 96 96 95 96 98 88 95 95 95 94 96 91 67
57 64 65 49 38 41 32 26 22 23 30 28 31 43 35 31 34 43 50 56 60 56 65 80 92 93 95 92 96 96 96 96 95 90 92 93 95 93 95 95 96 95 94 95 94 94 94 80 76
48 66 68 34 39 35 30 22 22 32 32 32 34 44 42 31 39 42 50 54 56 62 77 84 85 83 90 88 92 95 96 95 95 93 94 93 93 94 92 95 94 95 95 96 93 90 83 69 64
68 69 63 38 30 29 29 20 23 32 34 34 40 42 42 30 36 45 49 52 56 76 66 78 81 86 82 93 95 94 95 96 95 91 96 95 94 87 87 95 94 94 93 92 91 85 79 55 60
57 60 48 29 30 28 25 20 25 29 33 35 34 46 42 34 39 43 49 62 63 57 54 58 74 93 80 90 86 96 96 95 95 95 94 87 94 94 90 90 90 91 92 92 89 85 66 46 44
56 54 62 61 29 32 26 27 30 21 32 28 30 45 46 33 37 40 50 54 57 59 51 54 62 66 70 80 91 92 96 94 92 95 96 94 91 94 93 86 91 94 95 91 83 64 59 54 51
28 61 63 39 32 34 24 30 26 34 27 28 28 33 32 29 30 38 41 49 56 61 60 60 75 72 66 55 84 86 88 83 91 90 89 88 90 82 87 62 82 92 93 76 62 58 57 55 58
46 39 25 20 23 27 26 30 33 28 24 30 31 30 28 28 28 35 41 38 42 51 55 70 67 67 64 61 56 58 65 64 64 65 71 77 81 78 78 77 66 71 79 82 57 55 54 51 54
33 28 20 35 30 20 25 31 30 26 32 32 36 32 29 30 30 34 37 37 36 46 52 63 66 62 59 65 68 70 67 69 68 68 68 72 75 73 62 68 66 78 77 64 53 46 45 37 49
30 25 19 36 34 30 24 22 24 25 26 27 28 28 29 31 31 32 35 36 36 42 50 54 56 60 62 68 72 76 69 70 66 68 67 65 67 68 68 63 58 60 59 63 76 66 59 65 66
30 29 25 28 30 20 20 27 24 24 22 24 24 26 29 30 28 27 30 35 36 38 52 54 57 62 65 65 67 69 69 64 66 63 57 67 62 68 68 67 64 68 77 69 71 66 62 66 63
33 29 31 42 25 23 24 30 24 24 22 23 24 27 29 27 26 25 28 35 36 37 49 57 59 63 65 70 65 62 62 68 65 67 59 64 63 64 67 67 64 69 70 65 69 66 67 65 56
33 37 34 31 28 27 25 31 33 23 21 24 25 28 28 28 25 25 24 29 33 43 47 51 52 60 61 66 61 58 58 68 68 69 65 65 68 66 64 66 66 59 64 66 68 65 63 62 62
37 45 65 36 34 32 36 44 31 23 25 28 27 28 28 32 28 24 22 27 32 43 46 50 53 57 57 63 62 57 58 64 66 67 64 61 66 65 60 66 64 66 62 62 64 65 67 67 63
42 54 53 45 36 40 66 70 37 28 29 35 30 30 30 37 35 28 28 27 32 39 40 41 52 53 58 60 62 58 57 62 64 66 68 67 66 68 66 67 65 64 64 64 64 68 63 61 63
50 61 56 58 34 68 62 65 34 41 30 33 38 36 35 39 37 30 34 33 33 38 39 40 48 52 55 63 58 57 64 65 58 59 65 69 65 65 67 66 66 68 64 64 66 69 66 69 64
36 47 50 49 37 43 40 58 57 60 59 35 43 39 40 45 41 29 34 41 39 38 39 43 46 47 57 60 64 59 64 56 49 60 66 67 62 69 67 66 69 69 68 69 69 71 69 64 69
28 39 42 29 32 25 35 54 59 68 60 40 34 38 41 50 42 38 31 42 44 46 46 46 52 50 53 56 58 59 60 57 58 66 66 65 66 72 72 68 66 66 71 73 70 69 72 71 68
26 30 24 24 21 28 29 45 46 44 36 40 31 32 34 40 45 39 35 34 45 52 50 51 59 56 50 59 56 57 57 62 67 63 50 50 42 66 74 74 72 70 70 79 74 74 70 67 64
46 25 21 23 28 37 29 58 65 58 48 37 36 32 32 38 41 43 42 40 44 40 50 53 55 56 55 58 57 61 55 56 61 60 49 61 76 76 78 84 84 82 83 80 78 78 75 73 73
28 30 24 24 27 30 49 74 79 52 51 45 36 31 31 35 37 42 44 40 46 44 49 53 56 58 52 62 62 61 57 60 67 67 66 73 75 76 77 83 84 83 86 88 85 81 80 81 76
12 13 30 38 37 43 40 58 74 69 46 46 34 29 28 32 36 37 36 40 48 46 53 57 62 63 64 63 63 60 63 61 66 66 69 71 72 80 76 83 85 89 89 87 84 81 76 75 83
13 16 42 54 69 55 40 40 48 42 39 38 36 26 28 32 34 37 43 44 47 50 62 62 63 65 66 67 64 70 67 62 69 70 74 71 75 86 82 75 73 81 78 77 72 65 64 66 73
14 15 37 53 55 41 37 43 39 28 26 34 20 23 28 33 34 38 41 48 47 52 62 65 64 68 70 68 67 67 66 68 70 73 75 78 76 81 79 78 71 66 70 70 67 69 72 63 60
15 19 13 26 36 50 37 28 21 25 34 38 23 24 26 32 36 40 45 48 47 50 59 63 65 70 68 71 68 68 70 71 75 78 79 74 67 69 66 61 66 71 75 71 78 76 70 65 66
11 12 18 23 48 47 43 44 39 33 49 52 29 26 31 33 40 42 44 49 47 44 54 61 65 70 69 68 66 72 75 77 80 75 67 65 63 62 63 66 69 71 74 73 68 62 72 70 68
12 13 12 23 45 56 53 67 37 30 34 34 26 26 30 36 39 41 44 47 45 44 59 62 65 67 67 64 72 73 77 80 76 75 69 60 59 63 67 69 70 71 72 74 71 72 70 69 68
7 9 11 26 21 34 34 36 20 18 18 18 24 26 30 35 38 40 44 45 46 47 60 60 62 64 62 66 72 70 78 72 68 62 60 61 60 66 69 71 71 70 70 70 72 72 72 69 73

GFSSGP_925_rhum_276.txt.gz
RH
36 75 65 80 69 51 46 48 46 41 41 38 37 44 56 53 55 86 79 78 86 83 83 87 87 93 95 95 96 97 96 96 97 97 96 96 94 95 97 98 93 93 94 81 75 75 77 88 89
49 54 76 87 64 52 45 42 52 41 38 39 41 46 56 76 66 79 84 85 82 75 83 86 82 87 95 96 96 97 96 95 97 96 96 96 95 94 94 97 89 80 80 79 79 91 90 87 90
72 72 85 81 53 48 41 47 41 36 33 34 39 37 51 72 69 71 79 84 69 83 84 85 85 90 94 94 95 95 96 97 96 95 95 96 96 95 94 94 98 94 90 92 95 90 89 85 92
71 67 69 50 44 34 33 39 39 37 37 36 38 46 42 56 56 69 72 82 58 80 78 87 90 95 95 96 95 95 96 95 96 96 95 95 95 95 96 96 98 96 95 95 95 95 92 89 90
49 62 61 47 41 34 31 33 34 41 43 41 39 48 50 49 58 71 78 74 64 74 83 90 89 94 95 96 96 95 95 96 96 93 95 93 94 94 95 95 93 96 94 94 95 94 90 77 73
62 63 55 50 38 31 32 33 36 41 40 41 42 48 56 54 60 66 71 55 64 77 76 67 83 93 94 95 95 96 95 95 96 95 95 96 95 96 94 95 94 94 96 94 89 77 74 61 66
52 56 49 41 38 34 29 33 38 42 42 42 36 59 55 50 58 62 56 45 62 68 64 74 88 91 95 95 95 95 96 95 96 96 96 96 90 95 95 94 95 93 92 91 62 49 49 59 63
47 56 47 49 39 38 29 30 32 37 39 33 33 50 53 51 56 55 56 60 65 69 62 74 84 81 87 94 96 95 94 96 95 95 95 95 92 91 92 87 90 90 91 80 58 50 42 47 49
37 54 56 46 36 34 29 31 33 30 38 35 33 38 40 48 56 68 74 80 83 74 65 70 68 67 72 79 93 95 93 93 94 92 93 88 94 90 91 77 93 95 94 82 69 65 58 58 47
46 54 42 32 30 32 29 31 35 38 39 39 37 34 40 48 56 57 66 75 80 74 73 68 68 59 50 64 78 79 90 88 77 68 78 79 78 76 68 72 91 96 92 84 67 63 62 61 55
41 40 34 21 29 26 29 32 31 36 44 39 41 37 39 42 46 51 56 64 68 63 67 74 68 61 61 55 60 67 74 67 68 72 71 74 76 78 79 76 80 85 83 82 87 66 52 41 42
35 32 30 33 30 31 33 32 31 34 37 33 33 33 35 41 43 43 43 50 57 60 68 68 66 65 64 68 70 68 72 76 76 71 72 74 75 77 68 67 66 57 66 56 54 66 62 55 53
37 32 29 29 35 35 28 31 32 37 32 30 30 32 35 35 39 40 39 48 53 59 68 62 62 62 64 66 68 75 70 72 72 70 74 75 72 73 74 68 69 64 62 67 67 63 67 71 66
33 34 30 32 35 40 38 34 29 33 30 30 31 34 34 35 34 38 40 43 54 57 56 60 61 65 66 66 66 66 71 69 71 68 64 70 67 69 70 68 73 70 69 65 66 69 68 70 68
34 39 39 41 38 49 36 43 46 31 28 30 31 32 32 29 29 37 39 39 52 54 56 59 65 66 67 62 62 62 66 70 65 66 63 66 65 64 65 66 65 66 66 65 64 65 67 62 67
38 45 56 43 40 43 42 55 52 38 28 32 30 30 31 34 31 37 38 39 48 53 57 57 63 65 66 64 64 62 62 70 65 67 65 67 64 66 65 65 67 70 70 71 72 68 70 66 64
44 43 55 48 40 38 49 62 51 47 30 35 31 34 33 36 35 32 37 38 46 48 52 53 53 60 62 62 59 56 62 62 66 69 68 65 66 66 66 68 68 66 67 66 65 66 64 61 61
42 52 44 55 47 41 59 60 52 46 47 52 42 37 38 39 40 30 33 39 45 45 47 52 53 57 64 65 63 57 62 65 66 68 67 67 67 66 68 66 66 64 69 69 65 67 68 67 66
38 48 46 41 37 48 53 48 48 52 45 49 54 57 51 45 42 35 37 45 49 44 48 54 53 58 62 68 57 61 61 66 68 64 65 69 69 69 66 65 68 66 70 69 69 70 70 67 65
39 48 48 36 35 40 56 60 46 50 52 44 48 62 53 58 48 45 46 50 43 44 45 48 53 60 58 58 57 59 57 58 54 64 67 68 64 69 68 67 69 68 69 67 71 72 72 72 71
31 45 40 36 36 38 50 56 56 46 52 44 47 45 43 50 53 49 50 47 51 51 44 49 52 58 60 62 62 63 68 64 65 68 66 54 60 68 69 74 77 73 74 72 74 72 71 74 68
31 26 27 26 35 42 40 44 61 52 50 43 37 41 42 44 45 41 46 51 53 48 41 45 52 55 55 56 57 60 59 63 56 67 51 54 67 82 74 78 83 83 83 80 80 74 77 78 74
28 23 23 25 34 40 44 50 55 51 45 34 39 37 36 43 47 50 45 48 52 52 52 50 55 56 56 57 57 62 58 59 61 63 61 64 78 83 81 83 81 83 88 90 87 85 82 75 75
23 28 31 46 39 41 39 48 52 47 31 32 33 35 34 42 45 46 47 45 51 57 62 59 61 59 56 57 61 63 61 66 65 70 68 72 82 83 80 81 81 84 87 83 77 72 72 74 83
21 33 44 50 61 41 45 38 40 32 33 37 35 33 34 39 44 43 50 56 55 64 67 60 60 61 54 59 64 64 64 64 68 72 74 77 78 86 82 78 73 74 75 76 71 65 68 67 70
18 24 44 42 52 43 41 43 34 30 30 33 30 31 32 40 40 42 48 54 55 64 67 66 63 63 64 66 67 66 66 65 72 70 73 75 79 85 81 78 74 66 65 66 74 74 70 66 66
16 19 22 41 44 44 43 35 27 31 31 31 30 34 39 42 41 42 48 53 57 69 67 63 65 68 67 68 68 68 69 68 73 76 79 74 81 79 73 64 64 72 71 68 77 71 65 63 67
15 16 17 32 42 47 42 48 44 31 35 29 27 34 39 42 43 48 52 52 61 66 66 59 61 68 69 68 68 71 72 74 79 79 80 72 71 67 63 64 70 70 73 69 64 67 67 62 73
11 14 19 29 43 52 45 52 43 32 37 39 32 30 38 44 49 52 53 50 58 64 66 62 64 65 70 74 71 71 76 78 78 74 73 66 63 63 64 70 72 74 75 72 74 73 74 73 74
10 10 16 22 20 44 43 40 22 30 31 33 35 35 37 42 49 51 54 52 59 67 72 71 67 70 69 68 69 75 82 82 79 76 67 62 58 65 65 72 72 74 72 67 73 73 72 69 76

GFSSGP_925_rhum_279.txt.gz
RH
74 76 83 89 68 54 52 58 43 46 50 47 42 47 71 76 60 73 84 79 77 87 91 90 88 96 96 95 96 96 97 95 97 95 92 94 97 95 100 94 95 91 91 89 75 74 78 88 86
65 75 91 86 59 57 54 50 53 48 47 43 45 53 68 82 78 90 93 87 85 90 85 85 84 89 94 96 97 97 97 97 97 96 93 95 92 93 100 97 88 89 86 81 79 76 79 88 92
62 71 88 78 53 53 60 49 50 46 41 39 45 48 64 86 82 84 83 78 83 84 80 83 81 93 96 95 96 97 96 97 96 96 96 94 96 94 98 98 80 79 82 83 88 88 89 92 89
73 68 64 53 42 40 53 45 41 44 39 38 44 58 62 65 73 74 80 64 81 81 81 88 93 96 96 95 96 96 97 96 95 96 96 96 93 91 92 92 83 89 92 95 90 93 93 92 80
53 60 59 47 41 38 45 39 42 49 47 45 43 61 77 67 67 76 84 73 85 81 91 91 91 94 94 96 96 96 96 96 96 96 97 96 95 95 96 95 94 96 96 95 93 92 91 92 89
49 57 54 52 40 39 43 38 41 45 44 48 53 60 68 77 71 87 83 79 79 88 91 91 88 92 95 95 95 96 96 95 96 96 94 95 95 95 91 94 96 94 92 94 93 92 92 91 88
48 53 50 43 42 42 42 37 45 46 45 46 46 72 75 70 76 81 71 71 80 95 91 92 91 93 95 96 96 96 95 96 95 96 95 96 96 95 95 95 94 96 93 89 86 82 68 80 72
55 51 47 46 42 41 40 38 39 42 46 38 46 75 83 64 72 78 73 88 93 91 83 84 87 90 90 91 96 95 96 95 96 96 96 92 94 94 95 88 93 89 84 60 69 55 58 65 62
39 57 49 42 40 38 34 41 38 35 42 41 38 52 55 62 68 76 88 95 93 91 87 81 85 82 87 92 92 93 96 96 96 94 92 90 87 92 89 82 92 94 93 71 68 61 51 50 57
46 51 45 36 32 33 35 39 42 43 42 44 46 50 56 60 71 80 86 92 92 89 87 81 81 81 84 91 93 92 92 93 93 91 89 91 86 85 87 75 94 95 85 70 71 63 65 58 57
38 43 38 34 38 30 33 38 37 44 49 42 59 60 56 63 70 73 76 82 75 66 74 72 73 72 79 82 86 84 88 85 72 77 73 74 81 83 80 77 93 93 91 75 64 60 62 55 53
37 35 32 34 35 33 35 34 41 40 43 36 47 51 57 63 62 66 71 72 72 71 71 66 74 63 63 67 70 68 76 75 76 68 70 74 76 75 74 75 72 71 70 73 69 60 48 46 42
43 36 33 32 34 32 32 36 41 42 36 36 42 46 53 53 54 58 62 67 66 69 70 69 72 64 69 65 65 70 73 74 71 72 74 75 75 74 75 69 68 67 59 65 60 62 66 66 63
38 36 36 37 40 41 35 39 38 40 36 36 38 46 48 48 48 48 51 59 63 61 65 61 67 64 66 68 69 68 71 71 70 74 74 76 73 70 72 71 70 70 68 65 68 65 66 65 68
38 40 40 42 45 40 37 46 46 38 35 37 37 39 41 41 42 45 48 56 57 57 63 59 62 65 66 70 65 70 69 70 67 67 72 71 71 70 70 67 64 66 66 67 68 67 64 62 63
40 46 52 41 45 43 40 53 46 38 37 39 37 36 36 41 39 41 44 51 54 55 60 60 62 66 69 69 68 68 70 68 69 68 71 68 69 69 69 69 67 65 66 67 69 68 67 66 70
45 50 48 48 44 41 42 56 48 44 39 39 36 37 36 42 41 39 42 46 54 53 56 60 62 64 63 68 68 64 64 66 69 68 68 66 68 67 69 68 71 72 72 71 70 72 72 73 69
42 50 49 50 42 40 43 50 50 48 49 38 42 38 41 41 42 38 41 42 53 55 57 59 63 62 62 68 70 66 65 68 68 67 69 70 69 69 70 68 68 66 67 68 69 69 69 67 69
42 40 32 40 38 46 44 40 45 50 50 54 56 53 49 45 40 38 43 43 59 61 61 58 63 64 62 68 70 64 61 66 67 68 69 71 70 71 70 69 68 69 66 66 69 70 71 70 70
41 46 46 39 36 43 52 51 42 50 50 48 55 58 55 52 46 47 42 48 57 56 55 54 56 62 62 63 55 58 58 61 64 66 67 70 70 72 69 67 66 72 69 72 71 74 74 76 74
41 43 45 35 39 42 58 57 55 46 51 50 47 50 50 49 59 61 52 54 56 59 53 54 58 58 62 61 57 63 66 61 63 57 68 72 72 71 72 71 76 75 73 75 74 74 75 75 74
32 33 33 37 40 49 40 57 46 51 52 53 46 50 48 46 52 64 67 60 55 52 48 51 56 55 59 60 61 66 63 68 63 56 66 62 59 68 73 75 79 78 79 80 78 78 76 82 73
28 27 30 33 38 40 46 50 50 52 48 44 45 42 46 43 52 58 65 58 54 54 47 57 58 57 60 64 66 62 58 58 61 62 69 57 66 74 77 83 82 82 84 88 87 85 82 80 79
25 30 36 45 42 39 39 43 41 50 39 32 37 40 38 43 45 48 52 55 54 55 58 59 58 64 63 65 64 62 61 60 64 70 68 71 72 83 84 79 80 82 85 84 79 76 76 76 85
26 30 38 33 47 37 48 42 39 28 35 33 38 40 37 42 44 47 56 53 54 58 60 63 66 65 62 65 63 62 64 63 65 65 70 71 76 86 87 79 76 78 78 78 74 67 68 77 79
29 30 35 30 43 38 42 43 30 29 31 32 33 33 36 47 45 48 49 54 59 64 63 59 60 65 64 63 68 67 65 67 68 70 71 75 78 87 84 81 77 70 66 70 75 74 69 68 68
25 23 24 49 51 45 44 39 30 31 30 32 30 35 41 36 46 49 46 55 60 68 68 62 63 64 62 58 66 68 68 68 71 73 75 78 83 89 84 76 63 70 67 71 76 71 66 65 71
17 19 23 36 44 44 46 44 40 29 31 31 33 33 46 50 49 48 51 56 60 67 68 67 60 60 62 63 68 70 72 71 73 75 78 79 83 82 72 65 69 70 69 67 64 65 68 66 75
15 18 27 35 42 47 40 46 41 33 32 29 32 33 40 52 53 53 55 57 62 70 68 63 64 64 67 68 72 71 71 74 79 80 81 78 75 69 66 69 73 74 75 72 74 74 75 75 78
10 13 21 20 20 46 40 34 23 31 28 32 29 33 39 51 54 59 60 62 70 72 71 69 66 67 67 71 70 71 74 78 79 81 77 72 67 64 64 71 73 74 74 71 75 75 72 74 78

GFSSGP_925_rhum_285.txt.gz
RH
98 98 97 94 45 37 54 52 41 45 43 43 36 44 56 64 57 49 80 81 80 84 87 91 89 92 92 91 94 92 93 92 88 96 94 92 99 97 97 91 80 77 83 82 70 74 88 79 89
94 97 94 67 39 42 58 49 51 50 50 42 46 53 58 73 70 77 68 85 81 84 81 81 86 90 91 94 94 93 91 94 85 91 89 90 92 99 98 94 96 65 72 70 69 81 94 90 94
93 87 73 47 39 47 53 47 46 43 39 40 49 52 54 66 72 66 79 85 84 86 82 83 86 87 89 86 84 90 94 95 91 86 92 92 96 97 92 90 63 68 73 72 81 92 90 89 90
82 61 40 36 43 49 44 44 41 40 37 38 42 57 59 62 64 74 82 83 81 84 85 87 77 88 95 91 89 90 93 87 91 91 84 88 92 66 65 75 76 79 82 86 94 89 88 92 95
48 40 38 39 46 44 39 39 36 44 46 43 38 50 67 73 81 81 84 83 81 87 82 80 86 84 87 86 94 95 92 96 82 79 86 86 87 77 54 66 77 98 95 93 93 91 92 95 95
35 34 37 44 48 42 41 39 41 42 44 40 44 49 71 84 78 79 80 83 84 83 84 87 79 81 83 94 95 96 96 94 90 79 78 79 88 93 96 92 94 96 88 92 94 94 93 95 89
33 37 43 43 50 47 44 37 42 42 38 44 46 53 70 71 76 76 80 83 83 85 83 86 87 88 81 82 93 96 95 96 96 94 84 76 81 92 96 96 86 92 92 94 93 91 84 78 74
33 32 40 40 43 44 39 39 37 37 48 40 39 50 53 66 75 72 80 77 80 85 88 86 91 88 85 83 96 95 85 89 80 95 95 95 96 96 94 83 91 90 90 91 93 82 80 77 71
32 36 41 37 35 41 38 42 36 36 41 42 44 44 44 68 71 66 75 73 82 85 90 86 85 90 93 87 85 91 94 94 93 91 94 91 95 92 93 91 92 89 88 92 91 84 71 68 63
33 36 35 32 31 37 37 37 40 40 42 54 56 54 59 64 64 55 62 65 74 72 81 86 87 88 88 85 83 91 95 91 92 92 81 86 88 90 90 87 93 93 95 90 94 89 77 67 71
35 36 32 33 30 32 37 39 36 37 43 45 50 54 52 59 62 53 54 60 62 67 75 82 92 96 89 92 92 89 95 92 91 86 86 82 84 78 77 83 85 85 80 82 87 83 80 82 72
34 33 32 33 33 34 38 36 38 35 35 35 42 47 54 56 55 51 48 58 64 70 75 78 86 90 95 91 96 88 87 84 85 82 76 72 71 76 87 84 83 71 85 87 83 76 78 76 75
31 32 33 32 31 32 35 38 37 39 36 40 44 49 51 50 52 52 48 56 60 64 70 74 84 87 89 82 92 78 88 84 79 70 70 71 74 72 78 83 80 82 83 80 80 81 78 78 79
33 33 34 35 34 34 36 40 36 41 40 46 48 48 47 49 51 54 54 53 56 59 66 70 82 76 80 73 75 69 69 75 87 86 85 74 75 77 75 72 83 81 81 84 83 68 82 79 81
30 33 33 36 36 37 33 44 38 39 41 46 47 47 46 47 52 53 51 52 54 57 64 70 76 80 63 62 69 79 79 75 76 83 73 74 75 73 72 73 73 78 82 71 73 78 77 84 79
30 32 36 34 35 37 33 43 43 39 43 46 46 47 48 50 52 52 54 54 54 59 66 71 70 74 76 68 71 77 80 82 82 77 75 69 71 69 72 77 81 69 71 74 84 85 80 81 81
31 31 36 32 34 36 35 43 40 38 40 44 45 48 46 49 50 52 52 54 56 62 66 69 74 74 77 78 74 76 81 78 81 78 80 71 71 70 71 83 83 86 86 86 83 84 80 68 71
27 32 36 36 39 35 40 38 39 40 38 40 42 42 45 42 47 46 48 49 54 59 66 65 68 68 76 82 74 86 87 75 73 75 79 72 78 73 72 76 72 72 72 70 71 73 68 72 79
28 30 31 31 35 34 36 40 41 38 38 39 42 39 40 40 37 41 43 45 51 59 63 58 65 64 75 85 88 88 82 81 68 70 71 70 73 74 73 73 71 72 69 76 73 74 72 72 69
29 30 28 31 36 33 44 38 41 42 40 36 36 38 39 38 36 37 39 41 47 56 62 57 66 73 65 83 85 81 77 78 73 67 68 70 72 74 71 65 66 69 70 67 70 70 74 74 78
26 24 30 33 32 38 33 44 47 42 40 38 36 31 30 31 37 35 38 37 45 52 61 68 55 47 61 73 82 76 69 70 71 66 66 70 74 72 75 72 71 74 70 72 74 71 72 76 82
21 26 30 31 29 32 36 28 40 43 43 40 35 34 32 29 32 36 38 42 43 48 58 68 50 51 62 73 85 84 70 68 74 72 64 63 72 63 64 70 76 74 72 76 85 88 89 93 82
20 25 28 32 32 32 33 34 29 43 46 41 37 33 32 30 29 33 37 40 44 49 57 63 68 56 65 65 74 83 80 61 69 67 67 61 69 70 71 74 76 77 86 82 90 97 97 93 86
25 22 25 29 29 26 30 34 25 27 28 29 30 30 31 30 30 33 37 42 46 50 56 62 77 50 54 64 61 79 64 79 83 84 83 84 77 92 82 92 82 78 81 83 84 79 82 95 94
22 21 26 26 22 23 34 33 23 21 24 25 24 26 26 28 30 33 40 45 46 50 55 59 71 67 52 56 71 76 79 81 69 84 81 85 89 92 97 88 81 84 75 76 80 77 83 92 87
24 21 25 29 26 25 34 24 21 21 22 24 25 24 27 28 27 32 39 45 48 51 55 59 68 65 57 62 71 73 82 80 77 77 80 83 84 88 95 86 78 77 66 68 71 83 81 82 81
24 26 20 27 36 29 25 24 21 22 24 23 24 26 24 25 28 33 39 45 49 52 57 59 66 65 69 67 64 73 84 79 76 76 75 84 89 91 91 85 80 63 55 60 72 80 80 75 79
19 20 22 25 27 20 18 25 17 20 21 24 25 25 26 32 36 37 38 43 48 49 55 60 63 63 65 66 71 73 77 78 81 86 84 81 88 90 88 84 76 63 62 69 69 73 64 75 71
20 20 23 22 23 20 16 12 23 23 21 20 20 22 24 33 34 39 39 43 46 49 52 61 65 64 62 62 63 68 74 78 86 84 86 84 88 84 88 82 69 64 65 64 68 74 73 84 86
16 17 16 20 27 29 23 11 17 20 19 24 23 22 25 38 38 38 42 46 48 51 51 56 60 61 65 66 73 73 79 81 82 86 86 80 79 80 81 76 70 67 81 71 84 83 82 85 85

GFSSGP_925_rhum_291.txt.gz
RH
69 72 58 52 65 39 26 27 20 25 26 25 26 32 34 33 41 56 38 46 49 57 66 84 88 84 90 89 91 96 97 94 93 91 99 98 96 96 88 88 91 90 92 83 72 80 93 90 88
55 58 56 58 47 37 33 22 27 26 26 26 26 29 32 41 33 35 38 38 39 41 49 72 90 84 87 91 94 99 100 98 96 96 99 98 98 95 89 92 87 80 88 89 78 90 88 91 94
64 56 48 36 35 30 29 24 26 26 24 25 30 24 26 36 31 34 38 35 33 38 54 80 94 94 96 92 91 99 98 96 97 99 96 99 95 84 89 79 67 67 84 82 94 96 96 96 94
43 40 32 23 32 30 24 24 24 26 24 22 24 36 31 30 33 37 36 33 33 39 61 86 96 96 95 94 95 93 97 96 96 99 98 96 94 93 91 79 65 80 80 84 90 88 90 85 88
39 30 24 27 27 26 24 22 22 26 26 22 21 34 39 34 37 37 34 32 34 41 59 78 96 94 96 93 91 95 86 88 88 96 100 100 89 68 77 71 71 81 86 90 92 94 93 96 95
36 14 25 31 27 26 25 20 19 21 21 22 26 34 37 35 36 35 32 33 33 38 51 72 92 96 94 94 91 88 91 89 87 89 88 78 75 78 82 70 77 80 92 91 92 94 93 90 83
25 16 22 27 29 26 27 20 18 21 23 23 20 32 31 30 34 35 34 35 34 38 41 56 67 85 94 94 93 90 86 89 90 81 78 73 58 77 83 94 96 96 83 91 93 93 90 89 78
16 50 19 19 22 29 25 22 20 21 27 21 20 32 34 29 33 35 35 35 37 39 42 42 56 64 60 72 95 95 94 86 75 77 86 62 79 87 87 89 95 94 94 91 92 89 79 67 63
28 22 20 21 23 27 22 25 22 20 24 25 21 23 27 31 32 32 33 37 43 42 40 40 42 62 69 76 82 88 85 82 77 73 74 78 74 80 90 87 92 90 93 93 93 78 64 60 57
24 18 22 18 18 23 23 24 23 24 26 28 27 25 28 30 31 28 30 34 36 38 38 38 39 44 52 53 74 68 78 75 65 67 80 69 61 69 66 77 82 70 87 72 79 60 55 52 63
16 22 19 18 18 18 22 24 20 21 27 26 29 27 27 28 29 29 28 30 32 36 39 40 46 44 42 50 53 51 61 52 61 66 61 61 61 64 73 65 73 70 66 72 63 65 60 48 43
20 18 19 20 19 19 22 21 21 21 22 22 23 24 25 26 25 27 28 30 33 37 39 41 46 46 44 47 45 45 48 56 53 62 68 66 63 60 53 46 56 57 64 66 55 54 56 56 57
19 20 19 19 19 20 20 21 24 22 20 21 22 23 25 24 25 27 28 31 33 37 41 40 47 54 53 54 56 51 49 46 53 66 66 61 64 53 50 51 49 52 58 53 52 48 48 54 52
18 20 21 20 21 21 22 23 21 22 20 23 24 25 24 24 24 27 28 30 31 34 39 46 51 59 55 56 55 50 50 47 53 62 62 76 68 55 52 60 55 54 58 60 54 49 54 54 48
18 23 22 22 22 23 21 27 25 22 20 24 24 24 24 24 25 26 28 30 32 34 40 48 50 56 60 61 64 54 53 51 59 59 75 80 71 71 69 63 60 58 63 73 62 60 62 59 53
17 18 26 23 22 22 34 37 26 22 22 24 24 24 26 26 26 28 28 28 32 36 43 45 42 50 57 61 63 61 58 57 56 62 64 74 68 73 69 65 63 59 65 64 67 70 59 62 62
25 20 21 26 21 22 25 30 25 22 22 25 24 25 24 28 28 30 30 30 34 38 46 47 47 48 55 62 64 66 67 65 66 65 54 63 60 64 72 62 64 72 67 72 64 65 66 58 57
16 18 18 21 21 22 25 25 25 23 22 24 23 24 25 26 28 29 30 32 34 38 45 48 50 52 56 62 62 61 62 63 64 64 61 62 61 65 71 64 63 71 67 62 59 63 60 62 65
13 17 16 17 18 21 21 22 26 23 23 25 24 24 25 24 25 27 29 30 33 36 41 49 51 58 60 58 53 56 59 57 54 55 58 64 66 61 67 62 64 69 65 66 70 67 72 66 73
12 15 17 17 17 20 20 21 22 24 23 22 24 24 26 25 23 25 27 28 31 36 39 46 50 58 62 55 52 48 52 53 48 53 62 68 67 69 72 75 62 62 64 70 73 74 74 69 68
12 13 15 17 19 16 19 24 24 23 22 21 21 21 22 23 25 24 25 26 29 32 39 45 53 60 62 55 57 61 58 60 55 56 62 66 74 71 72 75 80 83 68 64 73 68 74 72 63
20 11 13 14 15 17 15 25 27 25 25 24 22 20 19 20 21 22 22 24 25 28 35 42 56 62 61 60 54 54 51 47 51 51 51 58 70 70 70 69 76 87 75 69 77 76 81 75 64
12 10 12 13 14 11 14 13 19 22 23 22 21 18 17 17 17 19 20 21 23 25 30 40 54 58 57 60 58 59 58 48 48 51 62 71 66 74 67 70 74 79 71 78 84 74 72 67 57
9 10 11 11 15 14 13 12 19 17 16 16 16 17 16 15 16 17 18 21 23 24 28 36 51 60 67 64 69 61 59 60 52 55 61 55 54 62 73 75 78 79 75 72 67 65 64 67 72
9 14 30 29 13 14 11 14 12 11 11 12 14 15 14 13 14 16 19 20 23 27 30 34 48 61 66 64 64 65 65 62 61 65 55 55 48 49 66 75 75 68 71 72 64 64 67 67 72
10 12 18 23 17 12 12 17 14 10 10 11 11 11 12 12 12 14 18 20 26 28 33 36 44 60 63 62 62 64 68 62 61 60 58 58 53 52 54 64 65 65 70 64 58 57 60 57 65
11 13 8 12 9 11 11 12 11 11 11 10 10 11 11 11 11 14 17 21 26 29 34 37 41 54 57 57 60 64 68 69 57 56 61 65 64 61 62 67 74 68 69 64 55 50 56 68 70
13 24 16 24 14 13 11 14 14 13 12 11 11 12 12 11 13 15 17 21 26 29 33 36 40 49 53 48 52 58 60 66 64 58 59 60 60 65 65 70 72 70 69 66 61 48 55 63 55
12 12 17 11 9 11 11 14 11 11 10 11 10 11 11 13 14 15 17 20 25 30 31 36 40 44 48 47 44 50 51 54 65 59 59 63 61 70 71 77 77 72 70 63 64 63 61 61 54
8 9 9 21 40 9 10 12 8 9 9 9 10 11 13 14 17 17 18 21 24 29 28 35 37 38 43 41 45 44 48 49 50 60 58 60 66 76 79 82 81 76 72 64 69 64 50 60 62